EW6606 Weather Reports


Display with metric or nautical units.
time (UTC)temp
F
wind
direction
speed
MPH
gust
MPH
rain 1hr
in
rain 24hr
in
rain mn
in
humidity
%
barometer
mb
20260903165656 95 202 3.0 10.0 0.00 0.00 0.00 46 1017.7
20260903165151 95 210 0.0 9.0 0.00 0.00 0.00 48 1017.7
20260903164645 95 164 4.0 7.0 0.00 0.00 0.00 45 1017.8
20260903164142 95 143 4.0 9.0 0.00 0.00 0.00 48 1017.6
20260903163636 95 352 2.0 3.0 0.00 0.00 0.00 51 1017.7
20260903163132 95 30 2.0 6.0 0.00 0.00 0.00 50 1018.0
20260903162628 96 144 5.0 9.0 0.00 0.00 0.00 50 1017.9
20260903162124 95 117 4.0 4.0 0.00 0.00 0.00 53 1017.9
20260903161624 95 140 2.0 4.0 0.00 0.00 0.00 51 1018.1
20260903161120 95 170 1.0 5.0 0.00 0.00 0.00 53 1018.0
20260903160615 94 114 3.0 6.0 0.00 0.00 0.00 54 1018.0
20260903160109 94 129 4.0 11.0 0.00 0.00 0.00 54 1018.2
20260903155608 94 117 4.0 7.0 0.00 0.00 0.00 56 1018.1
20260903155104 93 2 3.0 4.0 0.00 0.00 0.00 55 1018.3
20260903154559 93 194 2.0 6.0 0.00 0.00 0.00 57 1018.3
20260903154055 93 99 2.0 3.0 0.00 0.00 0.00 58 1018.3
20260903153551 92 50 0.0 3.0 0.00 0.00 0.00 61 1018.3
20260903153046 92 220 0.0 3.0 0.00 0.00 0.00 61 1018.2
20260903152542 92 340 2.0 3.0 0.00 0.00 0.00 60 1018.3
20260903152039 92 357 2.0 5.0 0.00 0.00 0.00 61 1018.3
20260903151537 91 351 2.0 5.0 0.00 0.00 0.00 62 1018.4
20260903151032 91 322 1.0 2.0 0.00 0.00 0.00 63 1018.4
20260903150526 90 68 3.0 3.0 0.00 0.00 0.00 62 1018.3
20260903150023 90 190 2.0 3.0 0.00 0.00 0.00 63 1018.3
20260903145522 89 339 0.0 3.0 0.00 0.00 0.00 66 1018.1
20260903145018 89 235 3.0 5.0 0.00 0.00 0.00 67 1018.3
20260903144516 89 14 1.0 4.0 0.00 0.00 0.00 68 1018.1
20260903144012 88 329 0.0 2.0 0.00 0.00 0.00 68 1018.3
20260903143509 88 307 0.0 2.0 0.00 0.00 0.00 70 1018.1
20260903143004 87 32 0.0 2.0 0.00 0.00 0.00 71 1018.1
20260903142459 87 135 0.0 1.0 0.00 0.00 0.00 72 1018.3
20260903141955 86 322 0.0 2.0 0.00 0.00 0.00 72 1018.0
20260903141451 86 304 0.0 2.0 0.00 0.00 0.00 73 1018.0
20260903140946 85 108 0.0 3.0 0.00 0.00 0.00 73 1017.9
20260903140441 85 109 1.0 3.0 0.00 0.00 0.00 74 1018.0
20260903135936 84 179 0.0 4.0 0.00 0.00 0.00 74 1018.1
20260903135432 84 25 0.0 3.0 0.00 0.00 0.00 76 1018.1
20260903134927 83 191 2.0 3.0 0.00 0.00 0.00 78 1018.3
20260903134426 83 183 2.0 3.0 0.00 0.00 0.00 78 1018.3
20260903133923 82 147 0.0 3.0 0.00 0.00 0.00 79 1018.1
20260903133420 82 185 2.0 3.0 0.00 0.00 0.00 80 1018.3
20260903132915 81 177 1.0 3.0 0.00 0.00 0.00 81 1018.4
20260903132410 80 169 0.0 2.0 0.00 0.00 0.00 82 1018.1
20260903131905 79 108 1.0 2.0 0.00 0.00 0.00 85 1018.5
20260903131404 78 5 0.0 2.0 0.00 0.00 0.00 88 1018.2
20260903130904 78 49 0.0 2.0 0.00 0.00 0.00 88 1018.2
20260903130359 78 16 0.0 2.0 0.00 0.00 0.00 89 1018.3
20260903125858 77 24 0.0 2.0 0.00 0.00 0.00 89 1018.3
20260903125353 77 297 0.0 2.0 0.00 0.00 0.00 89 1018.2
20260903124852 76 7 0.0 1.0 0.00 0.00 0.00 90 1018.2
20260903124348 76 44 0.0 2.0 0.00 0.00 0.00 90 1018.1
20260903123846 75 129 0.0 1.0 0.00 0.00 0.00 90 1017.9
20260903123341 75 154 0.0 1.0 0.00 0.00 0.00 90 1018.0
20260903122839 75 329 0.0 1.0 0.00 0.00 0.00 90 1018.0
20260903122335 75 304 0.0 2.0 0.00 0.00 0.00 90 1018.1
20260903121833 75 341 1.0 2.0 0.00 0.00 0.00 90 1018.1
20260903121329 75 315 0.0 2.0 0.00 0.00 0.00 90 1018.1
20260903120824 75 341 0.0 1.0 0.00 0.00 0.00 90 1018.1
20260903120318 75 4 0.0 2.0 0.00 0.00 0.00 90 1018.0
20260903115816 75 4 0.0 2.0 0.00 0.00 0.00 90 1018.2
20260903115312 75 24 0.0 2.0 0.00 0.00 0.00 90 1017.8
20260903114811 75 47 0.0 2.0 0.00 0.00 0.00 90 1018.0
20260903114307 75 322 0.0 2.0 0.00 0.00 0.00 90 1018.1
20260903113802 75 15 0.0 1.0 0.00 0.00 0.00 90 1017.9
20260903113258 75 112 0.0 2.0 0.00 0.00 0.00 90 1018.0
20260903112753 75 154 0.0 1.0 0.00 0.00 0.00 90 1017.7
20260903112249 75 101 0.0 1.0 0.00 0.00 0.00 90 1017.6
20260903111748 75 62 0.0 2.0 0.00 0.00 0.00 90 1017.5
20260903111243 75 355 0.0 1.0 0.00 0.00 0.00 90 1017.6
20260903110739 75 124 0.0 2.0 0.00 0.00 0.00 90 1017.5
20260903110235 75 89 0.0 1.0 0.00 0.00 0.00 90 1017.4
20260903105734 75 130 0.0 0.0 0.00 0.00 0.00 89 1017.4
20260903105229 75 104 0.0 1.0 0.00 0.00 0.00 89 1017.3
20260903104729 75 164 0.0 1.0 0.00 0.00 0.00 89 1017.3
20260903104224 75 133 0.0 1.0 0.00 0.00 0.00 89 1017.3
20260903103720 75 139 0.0 1.0 0.00 0.00 0.00 89 1017.3
20260903103216 75 124 0.0 1.0 0.00 0.00 0.00 89 1017.4
20260903102712 75 7 0.0 0.0 0.00 0.00 0.00 89 1017.2
20260903102211 75 37 0.0 1.0 0.00 0.00 0.00 89 1017.3
20260903101709 75 25 0.0 0.0 0.00 0.00 0.00 89 1017.2
20260903101206 75 30 0.0 2.0 0.00 0.00 0.00 89 1017.2
20260903100706 75 37 0.0 1.0 0.00 0.00 0.00 89 1017.2
20260903100200 75 25 0.0 0.0 0.00 0.00 0.00 89 1017.1
20260903095657 75 7 0.0 1.0 0.00 0.00 0.00 89 1017.1
20260903095152 75 25 0.0 1.0 0.00 0.00 0.00 89 1017.4
20260903094647 75 38 0.0 1.0 0.00 0.00 0.00 89 1017.2
20260903094142 75 129 0.0 0.0 0.00 0.00 0.00 89 1017.3
20260903093637 75 142 0.0 1.0 0.00 0.00 0.00 89 1017.3
20260903093132 75 50 0.0 0.0 0.00 0.00 0.00 89 1017.2
20260903092627 75 69 0.0 1.0 0.00 0.00 0.00 89 1017.2
20260903092122 75 164 0.0 2.0 0.00 0.00 0.00 89 1017.3
20260903091620 75 160 1.0 2.0 0.00 0.00 0.00 89 1017.0
20260903091115 75 141 1.0 1.0 0.00 0.00 0.00 89 1017.2
20260903090611 75 284 0.0 2.0 0.00 0.00 0.00 88 1017.2
20260903090109 76 48 0.0 2.0 0.00 0.00 0.00 88 1017.4
20260903085608 76 46 1.0 1.0 0.00 0.00 0.00 88 1017.1
20260903085104 76 25 0.0 2.0 0.00 0.00 0.00 88 1017.2
20260903084601 76 343 0.0 1.0 0.00 0.00 0.00 88 1017.3
20260903084056 76 50 0.0 1.0 0.00 0.00 0.00 88 1017.1
20260903083553 76 70 0.0 1.0 0.00 0.00 0.00 88 1017.2
20260903083052 76 65 0.0 1.0 0.00 0.00 0.00 88 1017.3
20260903082546 76 142 0.0 0.0 0.00 0.00 0.00 88 1017.2
20260903082042 76 38 0.0 1.0 0.00 0.00 0.00 88 1017.3
20260903081537 76 30 0.0 1.0 0.00 0.00 0.00 88 1017.2
20260903081033 76 104 0.0 0.0 0.00 0.00 0.00 88 1017.3
20260903080529 76 95 1.0 1.0 0.00 0.00 0.00 88 1017.0
20260903080026 76 119 0.0 2.0 0.00 0.00 0.00 88 1017.1
20260903075520 76 113 0.0 2.0 0.00 0.00 0.00 88 1017.1
20260903075015 76 96 0.0 1.0 0.00 0.00 0.00 88 1016.9
20260903074514 76 135 0.0 1.0 0.00 0.00 0.00 88 1016.9
20260903074009 76 129 0.0 1.0 0.00 0.00 0.00 88 1017.0
20260903073505 76 117 0.0 1.0 0.00 0.00 0.00 88 1017.1
20260903073001 76 104 0.0 1.0 0.00 0.00 0.00 88 1017.1
20260903072456 76 113 0.0 0.0 0.00 0.00 0.00 88 1017.1
20260903071953 76 113 0.0 0.0 0.00 0.00 0.00 88 1017.2
20260903071449 76 113 0.0 0.0 0.00 0.00 0.00 88 1017.1
20260903070944 76 129 0.0 1.0 0.00 0.00 0.00 88 1017.2
20260903070443 76 129 0.0 1.0 0.00 0.00 0.00 87 1017.1
20260903065938 77 144 0.0 2.0 0.00 0.00 0.00 87 1017.2
20260903065433 77 139 0.0 1.0 0.00 0.00 0.00 87 1017.4
20260903064932 77 142 0.0 0.0 0.00 0.00 0.00 87 1017.4
20260903064427 77 142 0.0 0.0 0.00 0.00 0.00 87 1017.3
20260903063923 77 142 0.0 1.0 0.00 0.00 0.00 86 1017.5
20260903063418 77 154 0.0 0.0 0.00 0.00 0.00 86 1017.5
20260903062913 77 154 0.0 1.0 0.00 0.00 0.00 86 1017.3
20260903062408 77 187 0.0 0.0 0.00 0.00 0.00 86 1017.4
20260903061904 77 129 0.0 0.0 0.00 0.00 0.00 86 1017.5
20260903061403 77 117 0.0 1.0 0.00 0.00 0.00 86 1017.4
20260903060859 77 164 0.0 1.0 0.00 0.00 0.00 86 1017.4
20260903060359 77 154 0.0 0.0 0.00 0.00 0.00 85 1017.4
20260903055856 77 129 0.0 0.0 0.00 0.00 0.00 85 1017.5
20260903055355 77 129 0.0 1.0 0.00 0.00 0.00 85 1017.4
20260903054850 77 89 0.0 0.0 0.00 0.00 0.00 85 1017.5
20260903054350 78 89 0.0 0.0 0.00 0.00 0.00 85 1017.4
20260903053846 77 89 0.0 1.0 0.00 0.00 0.00 85 1017.3
20260903053340 77 25 0.0 0.0 0.00 0.00 0.00 85 1017.6
20260903052837 78 25 0.0 1.0 0.00 0.00 0.00 85 1017.4
20260903052332 78 17 1.0 1.0 0.00 0.00 0.00 84 1017.4
20260903051828 78 89 0.0 1.0 0.00 0.00 0.00 84 1017.4
20260903051323 78 142 0.0 0.0 0.00 0.00 0.00 84 1017.5
20260903050819 78 142 0.0 1.0 0.00 0.00 0.00 84 1017.4
20260903050318 78 62 0.0 1.0 0.00 0.00 0.00 84 1017.4
20260903045813 78 7 0.0 0.0 0.00 0.00 0.00 84 1017.6
20260903045308 78 104 0.0 1.0 0.00 0.00 0.00 84 1017.4
20260903044805 78 129 0.0 0.0 0.00 0.00 0.00 84 1017.5
20260903044300 78 129 0.0 0.0 0.00 0.00 0.00 84 1017.4
20260903043757 78 154 0.0 2.0 0.00 0.00 0.00 83 1017.2
20260903043256 78 154 0.0 1.0 0.00 0.00 0.00 83 1017.4
20260903042755 79 127 0.0 1.0 0.00 0.00 0.00 83 1017.5
20260903042251 79 142 0.0 2.0 0.00 0.00 0.00 82 1017.4
20260903041746 79 129 0.0 1.0 0.00 0.00 0.00 82 1017.5
20260903041243 79 110 1.0 2.0 0.00 0.00 0.00 82 1017.6
20260903040737 79 129 0.0 1.0 0.00 0.00 0.00 82 1017.4
20260903040231 79 129 0.0 1.0 0.00 0.00 0.00 82 1017.5
20260903035727 79 103 0.0 1.0 0.00 0.00 0.00 82 1017.5
20260903035223 79 117 0.0 2.0 0.00 0.00 0.00 81 1017.5
20260903034723 79 89 0.0 0.0 0.00 0.00 0.00 81 1017.6
20260903034218 79 89 0.0 0.0 0.00 0.00 0.00 81 1017.6
20260903033713 79 104 0.0 1.0 0.00 0.00 0.00 81 1017.7
20260903033208 79 117 0.0 0.0 0.00 0.00 0.00 81 1017.7
20260903032702 80 117 0.0 1.0 0.00 0.00 0.00 81 1017.6
20260903032158 80 104 0.0 0.0 0.00 0.00 0.00 80 1017.7
20260903031654 80 117 0.0 1.0 0.00 0.00 0.00 80 1017.7
20260903031148 80 89 0.0 0.0 0.00 0.00 0.00 80 1017.6
20260903030643 80 89 0.0 1.0 0.00 0.00 0.00 80 1017.8
20260903030138 80 89 0.0 2.0 0.00 0.00 0.00 80 1017.7
20260903025633 80 142 0.0 0.0 0.00 0.00 0.00 80 1017.7
20260903025129 80 142 0.0 0.0 0.00 0.00 0.00 80 1017.6
20260903024624 80 142 0.0 0.0 0.00 0.00 0.00 80 1017.6
20260903024119 80 104 0.0 0.0 0.00 0.00 0.00 80 1017.6
20260903023615 80 104 0.0 1.0 0.00 0.00 0.00 80 1017.8
20260903023114 80 164 0.0 0.0 0.00 0.00 0.00 80 1017.8
20260903022609 80 164 0.0 1.0 0.00 0.00 0.00 79 1017.8
20260903022108 81 180 0.0 1.0 0.00 0.00 0.00 79 1017.7
20260903021603 81 150 0.0 1.0 0.00 0.00 0.00 79 1017.7
20260903021103 81 129 0.0 0.0 0.00 0.00 0.00 78 1017.5
20260903020558 81 129 0.0 1.0 0.00 0.00 0.00 77 1017.6
20260903020053 81 142 0.0 1.0 0.00 0.00 0.00 77 1017.4
20260903015548 81 142 0.0 0.0 0.00 0.00 0.00 77 1017.6
20260903015043 81 142 0.0 1.0 0.00 0.00 0.00 76 1017.6
20260903014543 81 154 0.0 1.0 0.00 0.00 0.00 76 1017.4
20260903014037 82 189 0.0 1.0 0.00 0.00 0.00 75 1017.2
20260903013537 82 172 0.0 0.0 0.00 0.00 0.00 74 1017.3
20260903013031 82 172 0.0 2.0 0.00 0.00 0.00 74 1017.1
20260903012526 82 117 0.0 1.0 0.00 0.00 0.00 73 1017.0
20260903012024 82 89 0.0 2.0 0.00 0.00 0.00 72 1016.9
20260903011519 82 117 0.0 0.0 0.00 0.00 0.00 71 1016.9
20260903011014 82 117 0.0 0.0 0.00 0.00 0.00 71 1016.8
20260903010509 83 135 1.0 2.0 0.00 0.00 0.00 70 1017.0
20260903010008 83 154 0.0 0.0 0.00 0.00 0.00 70 1016.7
20260903005503 83 154 0.0 0.0 0.00 0.00 0.00 70 1016.8
20260903004958 84 129 0.0 1.0 0.00 0.00 0.00 70 1016.7
20260903004453 84 154 0.0 2.0 0.00 0.00 0.00 70 1016.6
20260903003949 84 180 0.0 1.0 0.00 0.00 0.00 69 1016.6
20260903003448 85 172 0.0 1.0 0.00 0.00 0.00 69 1016.6
20260903002943 85 0 0.0 0.0 0.00 0.00 0.00 68 1016.6
20260903002438 85 0 0.0 1.0 0.00 0.00 0.00 67 1016.5
20260903001938 86 297 0.0 0.0 0.00 0.00 0.00 67 1016.6
20260903001437 86 142 0.0 0.0 0.00 0.00 0.00 67 1016.6
20260903000932 86 142 0.0 0.0 0.00 0.00 0.00 67 1016.7
20260903000428 86 142 0.0 0.0 0.00 0.00 0.00 67 1016.8
20260902235925 86 117 0.0 1.0 0.00 0.00 0.00 67 1016.7
20260902235421 86 142 0.0 1.0 0.00 0.00 0.00 67 1016.6
20260902234920 86 142 0.0 1.0 0.00 0.00 0.00 66 1016.6
20260902234415 86 180 0.0 1.0 0.00 0.00 0.00 65 1016.6
20260902233909 87 154 0.0 1.0 0.00 0.00 0.00 65 1016.7
20260902233403 87 147 0.0 1.0 0.00 0.00 0.00 64 1016.7
20260902232901 87 187 0.0 0.0 0.00 0.00 0.00 63 1016.6
20260902232356 88 148 1.0 2.0 0.00 0.00 0.00 63 1016.6
20260902231851 88 205 0.0 1.0 0.00 0.00 0.00 60 1016.4
20260902231346 88 124 0.0 0.0 0.00 0.00 0.00 60 1016.4
20260902230840 88 139 1.0 2.0 0.00 0.00 0.00 59 1016.4
20260902230340 88 112 0.0 2.0 0.00 0.00 0.00 57 1016.5
20260902225834 88 158 0.0 3.0 0.00 0.00 0.00 58 1016.4
20260902225330 88 149 1.0 2.0 0.00 0.00 0.00 58 1016.3
20260902224828 88 126 3.0 4.0 0.00 0.00 0.00 57 1016.5
20260902224323 87 178 3.0 5.0 0.00 0.00 0.00 59 1016.5
20260902223820 87 183 3.0 6.0 0.00 0.00 0.00 59 1016.7
20260902223319 88 194 3.0 8.0 0.00 0.00 0.00 57 1016.6
20260902222819 91 165 3.0 10.0 0.00 0.00 0.00 53 1016.7
20260902222312 92 129 6.0 9.0 0.00 0.00 0.00 51 1016.8
20260902221807 92 123 6.0 10.0 0.00 0.00 0.00 51 1016.7
20260902221306 94 168 6.0 14.0 0.00 0.00 0.00 49 1016.8
20260902220802 96 154 4.0 7.0 0.00 0.00 0.00 46 1016.7
20260902220301 96 161 3.0 4.0 0.00 0.00 0.00 44 1016.6
20260902215757 96 199 4.0 6.0 0.00 0.00 0.00 44 1016.4
20260902215252 96 108 2.0 4.0 0.00 0.00 0.00 45 1016.5
20260902214748 96 166 3.0 5.0 0.00 0.00 0.00 45 1016.7
20260902214246 96 139 2.0 4.0 0.00 0.00 0.00 45 1016.4
20260902213743 96 147 0.0 3.0 0.00 0.00 0.00 44 1016.4
20260902213243 96 244 0.0 7.0 0.00 0.00 0.00 44 1016.6
20260902212741 96 136 1.0 3.0 0.00 0.00 0.00 44 1016.6
20260902212238 96 70 1.0 7.0 0.00 0.00 0.00 45 1016.7
20260902211734 96 153 0.0 4.0 0.00 0.00 0.00 45 1016.8
20260902211229 96 138 4.0 7.0 0.00 0.00 0.00 45 1016.7
20260902210724 96 105 4.0 5.0 0.00 0.00 0.00 45 1016.6
20260902210219 95 200 2.0 4.0 0.00 0.00 0.00 46 1016.7
20260902205717 95 89 0.0 2.0 0.00 0.00 0.00 46 1016.7
20260902205213 95 118 2.0 5.0 0.00 0.00 0.00 46 1016.8
20260902204708 96 141 3.0 5.0 0.00 0.00 0.00 45 1016.8
20260902204202 96 202 1.0 3.0 0.00 0.00 0.00 46 1016.9
20260902203657 96 73 1.0 3.0 0.00 0.00 0.00 46 1016.7
20260902203152 96 173 0.0 3.0 0.00 0.00 0.00 46 1017.1
20260902202647 96 332 3.0 4.0 0.00 0.00 0.00 46 1017.0
20260902202144 97 122 3.0 6.0 0.00 0.00 0.00 45 1017.2
20260902201640 97 333 0.0 2.0 0.00 0.00 0.00 45 1017.1
20260902201139 96 132 3.0 4.0 0.00 0.00 0.00 45 1017.0
20260902200633 96 129 2.0 6.0 0.00 0.00 0.00 45 1017.2
20260902200130 96 93 1.0 3.0 0.00 0.00 0.00 46 1017.1
20260902195625 96 130 1.0 7.0 0.00 0.00 0.00 46 1017.2
20260902195125 96 139 2.0 4.0 0.00 0.00 0.00 45 1017.2
20260902194624 96 24 0.0 3.0 0.00 0.00 0.00 45 1017.4
20260902194119 96 132 2.0 6.0 0.00 0.00 0.00 45 1017.4
20260902193615 97 1 1.0 3.0 0.00 0.00 0.00 44 1017.7
20260902193114 97 294 1.0 4.0 0.00 0.00 0.00 43 1017.7
20260902192608 97 327 4.0 5.0 0.00 0.00 0.00 45 1017.9
20260902192107 97 272 6.0 6.0 0.00 0.00 0.00 46 1017.9
20260902191602 96 260 2.0 3.0 0.00 0.00 0.00 46 1018.0
20260902191056 96 262 4.0 6.0 0.00 0.00 0.00 47 1018.1
20260902190552 95 207 3.0 5.0 0.00 0.00 0.00 46 1018.3
20260902190047 95 137 2.0 3.0 0.00 0.00 0.00 47 1018.3
20260902185543 95 212 3.0 5.0 0.00 0.00 0.00 46 1018.4
20260902185038 95 115 3.0 3.0 0.00 0.00 0.00 46 1018.4
20260902184533 95 95 0.0 2.0 0.00 0.00 0.00 48 1018.6
20260902184028 95 48 1.0 3.0 0.00 0.00 0.00 48 1018.6
20260902183525 95 166 1.0 2.0 0.00 0.00 0.00 48 1018.5
20260902183021 95 350 1.0 2.0 0.00 0.00 0.00 47 1018.6
20260902182517 96 326 0.0 1.0 0.00 0.00 0.00 46 1018.7
20260902182013 96 147 0.0 2.0 0.00 0.00 0.00 46 1018.6
20260902181508 96 323 0.0 4.0 0.00 0.00 0.00 47 1018.8
20260902181002 95 179 1.0 7.0 0.00 0.00 0.00 47 1018.9
20260902180457 95 199 4.0 7.0 0.00 0.00 0.00 46 1019.0
20260902175952 94 195 1.0 5.0 0.00 0.00 0.00 47 1019.0
20260902175447 94 127 2.0 4.0 0.00 0.00 0.00 48 1019.1
20260902174943 94 130 2.0 2.0 0.00 0.00 0.00 50 1019.0
20260902174440 94 248 0.0 2.0 0.00 0.00 0.00 48 1019.0
20260902173935 94 131 4.0 5.0 0.00 0.00 0.00 49 1019.1
20260902173434 94 196 4.0 5.0 0.00 0.00 0.00 49 1019.2
20260902172929 94 122 4.0 6.0 0.00 0.00 0.00 49 1019.2
20260902172429 93 203 2.0 9.0 0.00 0.00 0.00 49 1019.5
20260902171924 93 104 1.0 2.0 0.00 0.00 0.00 51 1019.4
20260902171419 93 215 2.0 4.0 0.00 0.00 0.00 50 1019.5
20260902170915 93 124 4.0 5.0 0.00 0.00 0.00 50 1019.6
20260902170410 93 199 3.0 4.0 0.00 0.00 0.00 50 1019.8
20260902165906 93 133 3.0 6.0 0.00 0.00 0.00 49 1019.9